sat.trackr.live / text

‹ back to catalog

PERSEUS-M1

NORAD 40039 · 2014-033AF

PAYLOAD ACTIVE UNKNOWN

§ Identity

Operator
Country
CIS
Launch date
2014-06-19
Launch site
DLS
Launch vehicle
Mass (kg)
RCS (m²)
0.13

Purposes: tech_demo

External: N2YO · Heavens-Above · Gunter

§ Orbital elements

Epoch: 2026-05-25T02:06:39.595392Z

Period
96.29 min
Inclination
97.9634°
Eccentricity
0.0012198
Mean motion
14.95541211 rev/d
Perigee alt
572.2 km
Apogee alt
589.2 km
Semi-major
6,958.8 km
B*
9.5940e-5
RAAN
88.8439°
Arg perigee
20.9390°
Mean anomaly
339.2327°
Rev number
64,718

§ Raw data

PERSEUS-M11 40039U 14033AF  26145.08795828  .00001004  00000+0  95940-4 0  99972 40039  97.9634  88.8439 0012198  20.9390 339.2327 14.95541211647188

JSON: /api/v1/satellites/40039 · /tle

For live sub-satellite position, see the globe view (requires WebGL).

§ Visibility from observer

Set your observer location to see the next 7 days of passes ≥ 10°. The values pass through the URL so the page stays shareable.

No JS? Fill the form by hand. The geolocation button needs JavaScript.

§ Radio — SatNOGS DB

ModeDescriptionDownlinkUplink
GFSK GFSK 400.170 MHz

1 transmitter · refreshed weekly from db.satnogs.org